Location: Larkspur
(54.4391°N, 113.7691°W)
Time: 14:19:12
(UTC+00:00)

METEOR M2 - Pass Details

Date: 06 December 2023
Orbit: 819 x 826 km, 98.4° (Epoch: 02 March)

Event Time Altitude Azimuth Distance (km) Brightness Sun altitude
Rises 00:51:55 0° 180° (S) 3,354 ? -13.4°
Reaches altitude 10° 00:54:20 10° 186° (S) 2,425 ? -13.7°
Maximum altitude 00:59:32 49° 261° (W) 1,056 ? -14.4°
Drops below altitude 10° 01:04:47 10° 336° (NNW) 2,441 ? -15.1°
Sets 01:07:14 0° 342° (NNW) 3,377 ? -15.5°
